CDT,Max TemperatureF,Mean TemperatureF,Min TemperatureF,Max Dew PointF,MeanDew PointF,Min DewpointF,Max Humidity, Mean Humidity, Min Humidity, Max Sea Level PressureIn, Mean Sea Level PressureIn, Min Sea Level PressureIn, Max VisibilityMiles, Mean VisibilityMiles, Min VisibilityMiles, Max Wind SpeedMPH, Mean Wind SpeedMPH, Max Gust SpeedMPH,PrecipitationIn, CloudCover, Events, WindDirDegrees
2014-3-1,40,29,17,29,21,14,92,78,64,30.31,30.20,30.03,10,8,3,21,12,25,T,8,Rain-Snow,15
2014-3-2,17,10,2,12,1,-9,88,75,62,30.50,30.42,30.28,10,8,2,24,18,29,0.05,7,Snow,7
2014-3-3,25,12,-2,10,-1,-11,71,54,36,30.57,30.48,30.31,10,10,10,22,8,27,0.00,0,,28
2014-3-4,43,28,13,13,9,5,73,49,24,30.32,30.18,30.09,10,10,10,16,7,20,0.00,0,,153
2014-3-5,49,38,27,23,18,13,69,48,26,30.29,30.19,30.10,10,10,10,21,8,24,0.00,2,,94
2014-3-6,50,37,24,23,22,20,88,60,32,30.29,30.17,30.04,10,8,3,13,7,16,0.00,2,,107
2014-3-7,63,46,28,34,25,18,63,44,25,30.03,29.95,29.86,10,10,10,20,9,24,0.00,1,,152
2014-3-8,43,38,32,34,29,25,89,79,69,30.34,30.20,30.01,9,4,2,18,9,22,0.00,8,,355
2014-3-9,58,41,24,29,26,22,88,59,30,30.33,30.18,30.00,10,8,4,21,10,26,0.00,0,,215
2014-3-10,77,57,37,38,32,27,85,50,15,30.00,29.83,29.69,10,10,7,24,13,29,0.00,0,,227
2014-3-11,81,59,36,48,40,31,86,58,30,29.68,29.57,29.43,10,9,2,39,14,48,0.39,4,Rain-Thunderstorm,229
2014-3-12,46,38,29,33,29,26,100,75,49,30.17,30.00,29.71,10,8,1,31,15,39,0.11,4,Snow,329
2014-3-13,66,46,27,30,26,23,82,50,13,30.15,30.05,29.90,10,10,10,16,8,23,0.00,0,,180
2014-3-14,64,54,44,31,26,23,45,34,23,30.01,29.88,29.79,10,10,10,28,15,39,0.00,0,,255
2014-3-15,72,54,36,39,29,23,66,43,20,30.01,29.94,29.85,10,10,10,23,10,31,0.00,1,,149
2014-3-16,45,33,20,36,23,15,77,68,58,30.16,30.07,29.92,10,10,4,35,20,44,T,6,Snow,30
2014-3-17,48,32,16,20,16,12,88,57,25,30.10,29.90,29.74,10,10,10,15,7,20,0.00,0,,133
2014-3-18,65,51,36,44,33,21,86,59,31,29.73,29.61,29.51,10,10,10,30,16,39,0.02,3,Rain-Thunderstorm,156
2014-3-19,50,42,34,43,33,26,86,64,42,30.15,29.93,29.58,10,9,7,26,13,33,T,5,,279
2014-3-20,68,50,31,29,25,21,72,45,18,30.14,30.02,29.88,10,10,10,24,13,31,0.00,0,,212
2014-3-21,78,62,45,37,29,22,50,34,18,30.04,29.85,29.72,10,10,10,26,13,34,0.00,0,,232
2014-3-22,50,41,31,32,24,16,78,55,31,30.38,30.24,30.06,10,10,10,22,14,27,0.00,2,,1
2014-3-23,43,34,24,16,12,9,62,44,25,30.51,30.43,30.37,10,10,10,21,11,25,0.00,2,,17
2014-3-24,41,32,23,32,20,9,89,62,34,30.37,30.27,30.18,10,9,3,18,6,24,T,7,Snow,139
2014-3-25,40,33,25,30,17,7,92,60,27,30.32,30.26,30.18,10,10,8,29,11,34,T,3,,311
2014-3-26,53,37,21,36,17,8,85,54,22,30.29,30.13,29.90,10,10,7,29,15,36,0.18,4,Rain,156
2014-3-27,64,52,40,55,45,35,86,76,66,29.86,29.61,29.44,10,9,2,33,17,40,0.47,7,Rain-Thunderstorm,192
2014-3-28,47,42,37,37,35,32,85,75,65,30.14,30.02,29.80,10,10,6,17,8,23,0.00,7,,357
2014-3-29,54,44,34,35,32,29,89,67,45,30.28,30.21,30.13,10,9,6,20,10,23,0.00,5,,359
2014-3-30,71,52,32,34,31,28,89,56,22,30.26,30.11,29.94,10,10,7,20,13,26,0.00,0,,154
2014-3-31,69,60,50,47,40,30,67,50,32,29.93,29.81,29.68,10,10,8,36,19,45,0.01,2,Rain-Thunderstorm,171